Regional Weather Roundup
Issued by NWS

Home | Current Version | Previous Version | Graphics & Text | Print | Product List | Glossary On
Versions: 1 2 3 4 5 6 7 8 9 10 11 12 13 14 15 16 17 18 19 20 21 22 23 24 25 26 27 28 29 30 31 32 33 34 35 36 37 38 39 40 41 42 43 44 45 46 47 48 49 50
523
ASUS43 KLMK 071202
RWRKY
KENTUCKY REGIONAL WEATHER ROUNDUP
NATIONAL WEATHER SERVICE LOUISVILLE KY
700 AM EST SUN FEB 07 2016

NOTE "FAIR" INDICATES FEW OR NO CLOUDS BELOW 12,000 FEET
WITH NO SIGNIFICANT WEATHER AND/OR OBSTRUCTIONS TO VISIBILITY.

KYZ001>023-026-027-061>063-070>075-071300-
WESTERN AND SOUTH CENTRAL KENTUCKY

CITY           SKY/WX    TMP DP  RH WIND       PRES   REMARKS
PADUCAH        PTCLDY    34  22  61 SW7       30.17F WCI  28
HENDERSON      CLOUDY    34  23  64 SW10      30.15F WCI  26
OWENSBORO      CLEAR     31  24  75 S7        30.17S WCI  24
HOPKINSVILLE   NOT AVBL
BOWLING GREEN  CLEAR     26  23  88 CALM      30.20S
GLASGOW        NOT AVBL
$$

KYZ024-025-028>034-038-045-046-053-071300-
NORTH CENTRAL KENTUCKY

CITY           SKY/WX    TMP DP  RH WIND       PRES   REMARKS
LOUISVILLE/SDF PTCLDY    37  21  52 SW6       30.14F WCI  32
LOUISVILLE/LOU CLEAR     29  23  78 CALM      30.15F
FORT KNOX      NOT AVBL
$$

KYZ035>037-039>044-047>052-055>060-089>105-071300-
NORTHEAST KENTUCKY

CITY           SKY/WX    TMP DP  RH WIND       PRES   REMARKS
LEXINGTON      CLEAR     29  20  69 S6        30.15S WCI  23
COVINGTON      CLEAR     31  22  69 S7        30.11F WCI  24
FRANKFORT      CLEAR     24  19  81 CALM      30.14S
$$

KYZ054-064>069-076>088-106>120-071300-
SOUTHEAST KENTUCKY

CITY           SKY/WX    TMP DP  RH WIND       PRES   REMARKS
JACKSON        CLEAR     30  20  66 S3        30.17R
LONDON         CLEAR     24  20  84 CALM      30.19R
SOMERSET       NOT AVBL
MIDDLESBORO    NOT AVBL
MONTICELLO     SUNNY     19  17  92 W3        30.22R
$$





USA.gov is the U.S. government's official web portal to all federal, state and local government web resources and services.